Location: Cisewo
(53.3833°N, 14.9000°E)
Time: 13:27:26
(UTC+00:00)

Cosmos 883 Rocket - Pass Details

Date: 18 April 2021
Orbit: 951 x 994 km, 83.0° (Epoch: 16 May)

Event Time Altitude Azimuth Distance (km) Brightness Sun altitude
Exits shadow 22:14:36 56° 153° (SSE) 1,149 4.5 -24.7°
Maximum altitude 22:15:50 71° 96° (E) 1,034 4.5 -24.8°
Drops below altitude 10° 22:22:06 10° 14° (NNE) 2,750 7.7 -25.0°
Sets 22:24:39 0° 12° (NNE) 3,708 8.6 -25.0°
